Location: Melbourne
(37.8170°S, 144.9670°E)
Time: 09:51:58
(UTC+10:00)

Transit 2A - All Passes

Search period start: 29 April 2016 00:00
Search period end: 09 May 2016 00:00
Orbit: 594 x 966 km, 66.7° (Epoch: 28 April)

Date Brightness Start Highest point End Pass type
(mag) Time Alt. Az. Time Alt. Az. Time Alt. Az.
29 Apr - 00:13:56 10° NE 00:16:18 12° ENE 00:18:36 10° E night (unlit)
29 Apr - 01:52:53 10° NNW 01:58:56 86° WSW 02:04:27 10° SSE night (unlit)
29 Apr - 03:39:43 10° W 03:42:46 14° SW 03:45:42 10° SSW visible
29 Apr - 10:42:32 10° SSW 10:46:53 45° ESE 10:51:03 10° NE daylight
29 Apr - 12:27:09 10° WSW 12:29:31 14° WNW 12:31:52 10° NW daylight
30 Apr - 01:19:02 10° NNW 01:25:00 66° ENE 01:30:28 10° SE night (unlit)
30 Apr - 03:04:24 10° W 03:08:34 20° SW 03:12:30 10° S night (unlit)
30 Apr - 10:08:51 10° S 10:12:51 29° SE 10:16:39 10° ENE daylight
30 Apr - 11:52:17 10° SW 11:55:47 23° WNW 11:59:13 10° NNW daylight
01 May - 00:45:25 10° N 00:51:06 45° ENE 00:56:21 10° SE night (unlit)
01 May - 02:29:30 10° WNW 02:34:26 27° SW 02:39:02 10° S night (unlit)
01 May - 09:35:20 10° S 09:38:42 20° SE 09:41:58 10° E daylight
01 May - 11:17:54 10° SW 11:21:59 37° WNW 11:25:58 10° N daylight
02 May - 00:12:06 10° N 00:17:15 31° ENE 00:22:05 10° SE night (unlit)
02 May - 01:54:54 10° NW 02:00:22 38° WSW 02:05:24 10° SSE night (unlit)
02 May - 09:02:07 10° SSE 09:04:31 14° SE 09:06:52 10° ESE daylight
02 May - 10:43:45 10° SW 10:48:09 61° WNW 10:52:24 10° NNE daylight
02 May - 23:39:08 10° NNE 23:43:26 21° ENE 23:47:32 10° ESE night (unlit)
03 May - 01:20:32 10° NW 01:26:20 55° WSW 01:31:39 10° SSE night (unlit)
03 May - 10:09:45 10° SSW 10:14:15 82° ESE 10:18:34 10° NNE daylight
03 May - 23:06:49 10° NE 23:09:40 14° ENE 23:12:26 10° ESE night (unlit)
04 May - 00:46:23 10° NNW 00:52:22 79° WSW 00:57:48 10° SSE night (unlit)
04 May - 02:33:45 10° WSW 02:36:17 13° SW 02:38:44 10° SSW night (unlit)
04 May - 09:35:54 10° SSW 09:40:17 51° ESE 09:44:29 10° NE daylight
04 May - 11:20:58 10° W 11:22:51 13° WNW 11:24:43 10° NW daylight
05 May - 00:12:29 10° NNW 00:18:26 73° ENE 00:23:51 10° SSE night (unlit)
05 May - 01:58:13 10° W 02:02:04 18° SW 02:05:41 10° S night (unlit)
05 May - 09:02:10 10° S 09:06:15 33° SE 09:10:10 10° ENE daylight
05 May - 10:45:51 10° WSW 10:49:07 20° WNW 10:52:19 10° NNW daylight
05 May - 23:38:49 10° N 23:44:32 49° ENE 23:49:47 10° SE night (unlit)
06 May - 01:23:13 10° WNW 01:27:54 25° SW 01:32:17 10° S night (unlit)
06 May - 08:28:36 10° S 08:32:08 22° SE 08:35:33 10° ENE daylight
06 May - 10:11:23 10° SW 10:15:20 32° WNW 10:19:12 10° N daylight
06 May - 23:05:24 10° N 23:10:40 33° ENE 23:15:33 10° SE night (unlit)
07 May - 00:48:32 10° WNW 00:53:49 35° SW 00:58:41 10° S night (unlit)
07 May - 07:55:19 10° S 07:57:58 15° SE 08:00:34 10° E daylight
07 May - 09:37:10 10° SW 09:41:30 53° WNW 09:45:42 10° N daylight
07 May - 22:32:20 10° NNE 22:36:50 23° ENE 22:41:05 10° ESE night (unlit)
08 May - 00:14:07 10° NW 00:19:47 49° WSW 00:24:59 10° SSE night (unlit)
08 May - 07:22:55 10° SSE 07:23:43 10° SE 07:24:31 10° SE daylight
08 May - 09:03:08 10° SSW 09:07:37 88° NW 09:11:56 10° NNE daylight
08 May - 21:59:48 10° NE 22:03:03 15° ENE 22:06:10 10° ESE night (unlit)
08 May - 23:39:55 10° NW 23:45:48 72° WSW 23:51:10 10° SSE night (unlit)
